Location: Vienna
(48.2082°N, 16.3738°E)
Time: 22:29:16
(UTC+02:00)

ISS - Pass Details

Date: 14 July 2018
Orbit: 402 x 408 km, 51.6° (Epoch: 20 July)

Event Time Altitude Azimuth Distance (km) Brightness Sun altitude
Exits shadow 01:07:42 24° 89° (E) 901 -2.1 -20.1°
Drops below altitude 10° 01:09:15 10° 75° (ENE) 1,471 -0.8 -20.0°
Sets 01:11:24 0° 69° (ENE) 2,335 0.4 -20.0°
